Location: ??????
(55.2000°N, 38.3000°E)
Time: 07:54:19
(UTC+00:00)

Cosmos 292 Rocket - Pass Details

Date: 15 November 2025
Orbit: 662 x 682 km, 74.0° (Epoch: 14 December)

Event Time Altitude Azimuth Distance (km) Brightness Sun altitude
Exits shadow 03:56:39 - 328° (NNW) 2,574 6.3 -8.9°
Reaches altitude 10° 03:57:47 10° 325° (NW) 2,138 5.8 -8.8°
Maximum altitude 04:02:26 51° 250° (WSW) 861 4.0 -8.1°
Drops below altitude 10° 04:07:02 10° 176° (S) 2,114 6.7 -7.5°
Sets 04:09:22 0° 171° (S) 3,021 7.6 -7.2°
